Location: Unspecified
(0.0000°N, 0.0000°E)
Time: 23:25:56
(UTC+00:00)

S-56A Canister/Altair - Pass Details

Date: 05 October 2020
Orbit: 633 x 2499 km, 38.9° (Epoch: 28 October)

Event Time Altitude Azimuth Distance (km) Brightness Sun altitude
Rises 17:49:46 0° 333° (NNW) 5,952 12.4 -0.4°
Reaches altitude 10° 17:56:21 10° 352° (N) 4,649 11.6 -2.0°
Maximum altitude 18:03:02 16° 24° (NNE) 3,775 10.8 -3.7°
Drops below altitude 10° 18:08:39 10° 58° (ENE) 3,815 10.5 -5.1°
Enters shadow 18:11:03 - 71° (ENE) 4,092 10.6 -5.7°
Sets 18:13:04 0° 79° (E) 4,425 - -6.2°
